{"data":{"norad_id":57112,"epoch":"2026-09-20T11:47:43.202400Z","epoch_age_seconds":121594,"freshness":"FRESH","line1":"1 57112U 23090M   26263.49147225 -.00000051  00000+0  76813-5 0  9999","line2":"2 57112  43.0013 261.5193 0001133 265.0094  95.0628 15.27577056180127","mean_motion":15.27577056,"eccentricity":0.0001133,"inclination_deg":43.0013,"raan_deg":261.5193,"arg_perigee_deg":265.0094,"mean_anomaly_deg":95.0628,"bstar":7.6813e-6,"rev_number":18012,"period_min":94.266930387831,"perigee_km":482.28053806544,"apogee_km":483.83528483238,"semimajor_km":6861.1949114489,"source":"CELESTRAK","updated_at":"2026-09-21T09:00:33.560198Z"}}